Location: La Ronge
(55.1000°N, 105.3000°W)
Time: 23:18:37
(UTC-06:00)

Daily predictions for brighter satellites

Satellite Brightness Start Highest point End
(mag) Time Altitude Azimuth Time Altitude Azimuth Time Altitude Azimuth
Cosmos 220 Rocket 4.1 20:45:33 10° NNW 20:49:58 87° WSW 20:54:18 10° SSE
Cosmos 1340 2.6 20:49:41 10° S 20:53:27 69° E 20:57:16 10° NNE
Cosmos 2251 Rocket 4.5 20:49:12 10° NW 20:54:24 50° WSW 20:59:33 10° S
Nadezhda 3 Rocket 4.3 20:48:34 10° NNW 20:54:53 79° W 21:01:12 10° S
ERS-1 Rocket 3.7 20:51:13 10° SE 20:55:49 38° ENE 21:00:27 10° N
Cosmos 1151 Rocket 3.9 20:53:09 10° SSE 20:56:54 30° E 21:00:41 10° NNE
Cosmos 1825 2.6 20:55:10 10° N 20:58:52 46° ENE 21:02:31 10° SSE
Cosmos 1809 Rocket 4.5 20:52:44 10° S 20:58:55 80° E 21:05:09 10° NNE
Cosmos 1939 Rocket 3.7 20:56:24 10° S 21:00:12 51° W 21:04:04 10° NNW
Cosmos 1633 Rocket 3.5 21:00:43 10° NNW 21:05:02 63° W 21:09:20 10° S
Cosmos 2237 4.2 20:59:20 10° SSW 21:05:03 83° ESE 21:10:48 10° NE
Meteor 2-3 Rocket 3.9 21:02:29 10° NNW 21:08:06 77° W 21:13:43 10° S
Cosmos 2322 3.8 21:02:31 10° SSW 21:08:12 90° WNW 21:13:57 10° NE
Cosmos 44 3.2 21:05:15 10° SW 21:09:51 82° SE 21:14:46 10° NE
Helios 1B rocket 4.5 21:11:16 10° ENE 21:12:49 12° E 21:14:22 10° ESE
Cosmos 1437 4.5 21:11:03 10° SW 21:14:03 37° WNW 21:17:05 10° N
Cosmos 1869 4.3 21:10:51 10° SSE 21:14:17 28° E 21:17:44 10° NNE
Cosmos 405 3.8 21:12:36 10° N 21:15:53 35° ENE 21:18:45 12° SE
Cosmos 2098 Rocket 3.9 21:12:35 10° SSE 21:16:22 27° E 21:19:33 10° NE
Cosmos 2228 Rocket 3.3 21:12:34 10° SSE 21:16:47 48° E 21:21:03 10° NNE
SL-16 R/B 3.8 21:15:04 10° SE 21:17:49 15° E 21:20:46 10° ENE
Meteor 2-14 Rocket 4.5 21:12:10 10° S 21:18:17 84° E 21:24:27 10° NNE
Thor Agena Rocket 3.9 21:16:25 10° NNE 21:21:38 72° WNW 21:26:51 10° SSW
Cosmos 1515 Rocket 3.8 21:17:36 10° S 21:21:57 53° E 21:26:19 10° NNE
Cosmos 1943 Rocket 3.9 21:22:04 10° NNW 21:26:28 23° NNE 21:30:52 10° E
Meteor 2-16 Rocket 4.4 21:21:03 10° S 21:27:11 82° E 21:33:21 10° NNE
USA 245 3.1 21:25:44 16° SE 21:27:19 32° ENE 21:29:29 10° N
Cosmos 44 Rocket 3.3 21:24:07 10° SW 21:28:57 83° SE 21:33:57 10° NE
Helios 1A 3.4 21:26:20 13° SE 21:29:53 47° ENE 21:33:56 10° N
ARGOS 3.2 21:26:42 10° SSE 21:32:04 87° ENE 21:37:29 10° NNW
Cosmos 1190 Rocket 4.1 21:26:43 10° NNW 21:32:04 72° ENE 21:36:40 14° SE
USA 234 3.3 21:28:08 10° ESE 21:34:42 86° NNE 21:41:17 10° WNW
SL-08 RB Rocket 3.7 21:31:04 11° SSE 21:35:27 75° ENE 21:39:57 10° NNW
SJ 16-02 4.5 21:33:55 10° W 21:36:58 18° NW 21:40:01 10° N
Resurs 01 Rocket 3.5 21:34:41 10° SSW 21:38:35 30° W 21:42:31 10° NNW
BREEZE-M DEB (TANK) 3.1 21:36:51 10° SW 21:38:47 22° S 21:39:15 20° SSE
MetOp-B 4.2 21:33:31 10° SSE 21:38:53 88° ENE 21:44:17 10° NNW
Cosmos 2297 3.7 21:34:30 10° NNW 21:40:13 78° NE 21:44:55 16° SE
Cosmos 1140 Rocket 3.9 21:37:28 10° NNW 21:42:35 51° NE 21:46:26 17° SE
CZ-2C R/B 4.4 21:39:39 12° ESE 21:42:51 23° NE 21:46:39 10° N
Cosmos 1328 Rocket 3.8 21:38:40 10° SSW 21:43:06 75° WNW 21:47:34 10° N
Cosmos 1727 Rocket 4.0 21:37:31 10° N 21:43:46 76° ENE 21:49:42 11° SSE
Cosmos 1980 3.9 21:38:56 10° S 21:44:22 47° ESE 21:49:48 10° NE
Cosmos 2360 Rocket 3.3 21:39:10 10° WSW 21:44:36 48° NW 21:50:04 10° NNE
Meteor 1-27 4.4 21:39:12 10° SSW 21:44:56 81° WNW 21:50:38 10° NNE
RESURS DK-1 4.3 21:42:27 10° NNW 21:45:41 21° NNE 21:48:54 10° E
Cosmos 1954 Rocket 4.3 21:40:44 10° NNW 21:45:54 55° NE 21:49:44 18° SE
Landsat 7 4.4 21:42:33 16° SE 21:46:00 45° ENE 21:50:33 10° N
Cosmos 1441 Rocket 4.3 21:49:02 20° SE 21:50:29 26° E 21:53:38 10° NE
Cosmos 2369 Rocket 3.3 21:45:24 10° NNW 21:50:36 34° NE 21:55:14 12° E
Cosmos 2333 Rocket 2.1 21:45:04 10° SSW 21:50:42 73° ESE 21:56:22 10° NE
Cosmos 1862 3.4 21:47:18 10° N 21:51:21 61° ENE 21:54:06 19° SSE
Cosmos 1455 3.1 21:48:30 10° SSW 21:52:16 52° WNW 21:56:05 10° N
Cosmos 1959 Rocket 4.4 21:47:34 10° S 21:53:42 75° E 21:59:49 10° NNE
Cosmos 1408 3.8 21:52:08 10° NNW 21:55:35 41° W 21:59:03 10° SSW
COSMOS 2428 3.0 21:50:18 10° SW 21:56:02 74° NW 22:01:48 10° NNE
SL-16 R/B 4.5 21:52:51 10° W 21:57:39 27° NNW 22:02:29 10° NNE
NOSS 2-1 (C) 3.3 21:54:27 10° SW 21:58:13 85° SE 22:02:50 10° NE
Meteor 2-10 Rocket 3.9 21:52:47 10° S 21:58:25 57° E 22:04:08 10° NNE
ATLAS 2AS CENTAUR R/B 4.1 21:51:21 10° NW 21:58:27 37° WSW 22:05:07 10° S
Cosmos 2341 Rocket 4.5 21:52:12 10° SSW 21:58:32 66° WNW 22:04:51 10° N
NOSS 2-1 (D) 3.3 21:55:26 10° SW 21:59:12 87° SE 22:03:49 10° NE
Aureole 2 3.9 21:57:18 10° SSW 22:00:15 78° ESE 22:03:15 10° NNE
SeaSat 1 4.3 21:56:35 10° ENE 22:00:17 22° NNE 22:04:00 10° NNW
IGS 5A 4.1 21:57:55 21° SE 22:00:17 41° ENE 22:04:14 10° N
Spot 1 4.5 21:58:41 19° SE 22:02:06 61° ENE 22:06:45 10° N
Terra 2.4 22:00:47 20° SE 22:03:42 45° ENE 22:08:15 10° N
Cosmos 1437 Rocket 3.8 22:00:56 10° N 22:04:23 31° ENE 22:06:03 22° ESE
Cosmos 2218 Rocket 4.1 21:59:52 10° S 22:06:15 89° E 22:12:43 10° NNE
Meteor 1-29 4.2 22:04:12 10° NE 22:06:58 23° E 22:07:12 22° E
Lacrosse 4 Rocket 4.3 22:06:09 10° NW 22:08:56 17° NNW 22:11:46 10° NNE
ATLAS CENTAUR R/B 1.2 22:05:23 10° SSW 22:09:01 53° SE 22:12:53 10° NE
USA 81 4.1 22:03:52 10° N 22:09:12 86° W 22:13:40 15° S
Lacrosse 5 2.0 22:04:11 10° WNW 22:09:17 78° NNE 22:13:24 16° E
Cosmos 2237 Rocket 2.1 22:06:38 10° SSW 22:12:12 66° ESE 22:17:49 10° NE
Cosmos 2219 Rocket 2.4 22:07:29 10° SW 22:13:09 76° NW 22:18:49 10° NNE
SPOT 5 2.7 22:10:05 20° SSE 22:13:18 89° W 22:17:46 10° NNW
Cosmos 2278 Rocket 3.5 22:08:54 10° NW 22:13:56 33° WSW 22:18:57 10° S
CZ-2C R/B 4.2 22:12:08 10° NE 22:15:35 17° E 22:16:47 16° ESE
SPOT 1/Viking Rocket 3.6 22:11:59 19° SSE 22:15:46 90° ENE 22:21:03 10° NNW
Cosmos 405 Rocket 3.1 22:16:09 28° SSE 22:17:45 45° E 22:21:33 10° NNE
Cosmos 2366 rocket 4.1 22:14:14 10° SSW 22:20:28 82° WNW 22:26:50 10° N
H-2A R/B 2.7 22:19:45 12° S 22:24:20 48° W 22:29:10 10° NNW
NOSS 0 Rocket 3.9 22:18:15 10° SSW 22:24:26 85° ESE 22:30:43 10° NE
Cosmos 407 Rocket 4.0 22:19:41 10° NW 22:24:41 52° WSW 22:28:14 18° S
CZ-4C R/B 4.0 22:26:51 14° E 22:26:51 14° E 22:28:58 10° ENE
ATLAS 5 CENTAUR R/B 2.7 22:21:10 10° NW 22:26:37 59° NNE 22:31:12 18° ESE
Cosmos 1241 Rocket 4.5 22:22:35 10° NW 22:28:54 88° NE 22:32:48 25° SE
NOSS 3-4 (A) 4.2 22:22:40 10° NW 22:29:19 54° SW 22:34:10 21° SSE
NOSS 3-4 (C) 4.2 22:22:45 10° NW 22:29:25 54° SW 22:34:16 21° SSE
NOSS 2-1 (E) 3.8 22:25:47 10° WSW 22:29:39 69° NNW 22:34:31 10° NE
Cosmos 614 Rocket 4.1 22:28:33 10° NNW 22:33:48 75° WSW 22:36:43 27° SSE
Cosmos 1151 Rocket 4.4 22:30:25 10° SW 22:34:23 37° WNW 22:38:25 10° N
ERS-1 Rocket 3.9 22:30:18 13° SSW 22:34:36 43° W 22:39:24 10° NNW
Cosmos 1707 Rocket 3.5 22:34:09 29° S 22:36:14 65° E 22:40:33 10° NNE
YAOGAN 11 4.0 22:34:32 32° SSE 22:36:26 73° ENE 22:40:45 10° NNW
Cosmos 1869 Rocket 4.2 22:32:44 10° NNW 22:37:02 51° W 22:39:55 19° SSW
Cosmos 1933 3.5 22:35:54 36° SSE 22:37:14 53° E 22:41:14 10° NNE
Cosmos 1371 Rocket 4.0 22:32:04 10° SSW 22:37:25 84° ESE 22:42:49 10° NNE
USA 267 3.6 22:33:56 10° ENE 22:39:58 38° SE 22:45:59 10° SSW
NOSS 3-3 (A) 4.1 22:35:54 10° SW 22:42:13 84° NW 22:49:17 10° NE
NOSS 3-3 (C) 4.1 22:36:00 10° SW 22:42:19 85° NW 22:49:24 10° NE
Cosmos 676 Rocket 4.4 22:37:15 10° NNW 22:42:27 58° WSW 22:45:23 25° S
Helios 1B rocket 2.3 22:44:40 10° NNE 22:48:50 79° ESE 22:50:44 31° S
Cosmos 1733 Rocket 3.0 22:45:59 10° N 22:50:27 77° E 22:52:02 39° SSE
CARTOSAT-1 3.7 22:51:58 33° S 22:53:50 69° WSW 22:58:10 10° NNW
Cosmos 2098 Rocket 4.3 22:53:31 10° SW 22:57:38 36° WNW 23:01:01 10° N
Cosmos 2056 Rocket 3.6 22:53:44 10° SSW 22:59:11 85° WNW 23:04:37 10° NNE
Cosmos 1452 Rocket 3.7 22:58:32 35° SSE 23:00:15 49° ESE 23:05:19 10° NE
SL-16 R/B 2.1 22:56:50 19° SSW 23:00:55 67° ESE 23:06:33 10° NE
Meteor 1-14 Rocket 4.1 22:56:36 10° NNW 23:02:12 83° ENE 23:04:39 35° SSE
Cosmos 1782 4.1 23:04:48 26° E 23:04:48 26° E 23:08:03 10° NNE
Cosmos 2242 Rocket 3.7 23:05:47 45° SE 23:06:44 55° E 23:11:04 10° NNE
Cosmos 1633 2.4 23:03:21 10° N 23:06:59 82° E 23:07:26 66° SSE
GEOS 3 Rocket 3.6 23:01:37 10° NE 23:07:03 77° SE 23:12:23 10° SW
Cosmos 1782 Rocket 4.4 23:05:34 10° N 23:09:45 37° ENE 23:10:51 32° ESE
Cosmos 1943 Rocket 2.3 23:05:43 10° NNW 23:11:15 67° NE 23:13:38 34° SE
Meteor 1-4 Rocket 2.3 23:08:04 10° NNW 23:11:38 85° ENE 23:11:55 73° SSE
Cosmos 1850 Rocket 4.0 23:07:33 10° NNW 23:12:45 75° WSW 23:14:40 39° S
Mayak 0.9 23:12:46 10° NE 23:14:37 14° E 23:14:37 14° E
Cosmos 1624 Rocket 4.4 23:11:27 10° SW 23:16:37 63° WNW 23:21:48 10° NNE
USA 234 3.5 23:15:12 33° SSE 23:18:03 55° SW 23:24:29 10° WNW
Cosmos 1741 Rocket 4.1 23:13:58 10° NNW 23:19:18 70° WSW 23:21:14 39° S
Cosmos 1934 Rocket 3.8 23:16:27 32° S 23:19:26 78° E 23:25:31 10° NNE
CZ-2C R/B 2.9 23:20:42 40° S 23:22:20 69° WSW 23:27:11 10° NNW
Cosmos 1461 3.6 23:18:29 10° NW 23:23:15 59° NE 23:25:12 33° ESE
Cosmos 1656 Rocket 4.5 23:17:46 10° NNW 23:23:16 45° NE 23:26:17 24° ESE
RESURS DK-1 2.3 23:20:10 10° NW 23:24:22 82° NE 23:25:06 59° SE
Cosmos 1606 3.1 23:26:13 49° E 23:26:13 49° E 23:29:59 10° NNE
Cosmos 2344 3.7 23:20:44 19° SSW 23:26:22 57° SE 23:35:00 10° NE
Cosmos 1603 4.1 23:26:49 39° SE 23:27:42 42° ESE 23:32:58 10° NE
Okean 1-7 4.2 23:30:56 28° E 23:30:56 28° E 23:34:36 10° NNE
Cosmos 2263 4.1 23:25:46 10° NNW 23:31:26 87° ENE 23:33:25 42° SE
Iridium 37 4.5 23:32:10 66° NE 23:32:10 66° NE 23:35:00 10° N
Cosmos 1943 4.1 23:33:31 30° ESE 23:33:45 30° ESE 23:38:37 10° NE
Meteor 1-25 Rocket 4.5 23:28:28 10° NNW 23:34:12 64° W 23:36:33 35° SSW
Cosmos 2369 Rocket 2.2 23:29:25 10° NW 23:35:09 72° WSW 23:37:01 43° S
Cosmos 2333 Rocket 3.9 23:30:21 10° WSW 23:35:29 34° NW 23:40:37 10° NNE
SeaSat 1 2.7 23:35:23 38° ESE 23:37:08 64° NE 23:42:03 10° NNW
Nimbus 7 Rocket 4.4 23:32:12 10° NNE 23:38:11 86° WNW 23:41:17 30° SSW
Meteor 1-29 4.3 23:36:44 10° N 23:39:53 36° WNW 23:40:57 28° WSW
Cosmos 1437 Rocket 4.0 23:37:15 10° NNW 23:40:41 31° W 23:41:29 28° WSW
Spot 4 3.9 23:39:29 47° SSW 23:40:45 69° WSW 23:45:33 10° NNW
Cosmos 1703 Rocket 4.0 23:41:28 44° E 23:41:36 44° E 23:45:45 10° NNE
Terra 3.1 23:39:40 24° SW 23:41:36 33° W 23:45:55 10° NNW
Cosmos 1908 Rocket 3.5 23:37:20 10° NNW 23:41:47 78° W 23:42:35 58° SSW
Cosmos 1821 Rocket 4.4 23:37:41 21° SSW 23:42:04 62° WNW 23:48:19 10° N
Meteor 1-26 Rocket 4.2 23:40:39 34° SSW 23:43:08 80° WNW 23:48:46 10° NNE
Cosmos 389 Rocket 2.5 23:41:16 10° NNW 23:44:29 73° NNE 23:44:29 73° NNE
Cosmos 1602 3.6 23:42:36 10° N 23:46:35 77° ENE 23:46:46 74° ESE
ATLAS CENTAUR R/B 2.8 23:44:36 10° W 23:48:10 36° NNW 23:51:58 10° NE
Lacrosse 4 Rocket 4.3 23:46:23 10° NNW 23:49:15 17° NNE 23:52:10 10° NE
H-2A R/B 2.5 23:49:20 48° ESE 23:50:11 56° ENE 23:54:39 10° N
SL-24 R/B 4.0 23:50:07 63° SE 23:50:44 77° ENE 23:55:04 10° NNW
Cosmos 1271 Rocket 3.4 23:47:16 10° N 23:51:03 44° ENE 23:51:14 44° E
Cosmos 1862 Rocket 3.8 23:51:02 46° SW 23:52:10 66° WNW 23:56:35 10° N
Lacrosse 5 2.0 23:47:16 10° WNW 23:52:11 51° SW 23:52:35 50° SSW
ALOS 2 2.7 23:54:08 54° ESE 23:54:46 62° ENE 23:59:08 10° N
